Theta_e
326 327 325 323 320 320 321 320 319 317 316 316 316 316 317 319 321 321 320 321 322 323 324 325 325 325 324 324 323 324 324 324 324 324 325 324 324 324 324 324 325 325
326 326 325 323 320 320 320 318 317 316 315 315 315 316 318 318 319 319 320 321 322 323 324 325 325 324 324 323 323 322 323 323 323 323 324 324 324 324 324 324 324 325
325 325 324 322 320 319 319 317 316 316 315 315 316 316 317 318 317 317 319 322 322 323 324 325 325 324 324 323 323 323 322 322 322 322 323 324 324 324 324 324 325 325
324 324 323 322 321 320 319 317 316 315 316 316 316 317 317 317 317 317 320 322 322 323 324 324 323 322 322 321 321 321 321 321 321 322 322 323 324 325 325 326 326 326
323 324 324 323 323 323 320 317 315 315 316 316 316 317 317 317 318 319 320 320 322 322 320 319 320 320 321 321 321 322 322 322 323 323 323 324 325 326 327 327 327 327
325 326 326 325 325 323 320 317 316 316 316 316 317 317 317 318 319 319 319 320 322 320 318 320 323 324 325 326 326 327 326 326 327 327 326 326 326 327 327 328 328 328
326 328 328 327 325 323 320 318 316 316 316 316 317 317 318 319 319 319 321 324 324 321 321 325 327 327 328 328 328 329 329 329 329 329 328 328 327 327 327 327 328 328
328 331 331 328 325 323 321 319 317 316 316 317 317 317 319 321 320 321 325 327 326 325 325 327 328 328 328 328 328 329 329 329 329 329 329 329 328 327 327 328 328 328
329 333 333 329 323 321 320 319 317 316 316 317 317 318 321 322 323 325 328 327 327 327 327 328 328 329 329 329 329 329 329 329 329 329 329 329 329 328 328 329 329 329
331 337 336 328 320 319 321 320 318 316 316 317 317 318 321 324 325 327 328 328 328 327 327 327 328 328 328 329 329 329 329 329 329 329 329 329 329 328 328 329 329 328
332 334 334 328 322 320 321 320 318 316 316 317 318 318 322 325 326 327 328 328 328 327 327 327 327 328 328 329 329 329 329 328 328 329 328 327 327 328 328 329 329 327
335 338 341 336 326 321 320 320 318 317 317 318 318 318 321 325 327 327 327 327 328 327 327 327 327 328 329 329 329 329 328 328 329 328 327 326 326 327 328 328 328 326
346 348 344 335 327 324 324 323 320 318 317 318 318 318 321 324 325 324 323 325 328 328 327 327 327 328 328 328 327 327 327 328 328 326 325 325 325 326 326 327 327 326
350 348 337 331 329 327 326 324 321 319 319 318 318 319 322 322 322 321 320 324 328 327 326 326 327 327 327 325 325 326 326 326 326 324 324 324 324 324 325 325 326 326
350 345 338 336 333 327 324 323 320 318 319 318 318 320 322 322 320 320 320 324 327 326 324 325 327 326 324 323 324 324 324 324 323 323 324 324 324 324 324 324 325 325
350 349 344 339 333 327 325 323 318 317 319 318 318 320 323 325 323 320 321 324 326 325 324 325 326 324 323 323 324 323 322 322 322 323 325 326 326 326 325 325 326 326
352 351 343 334 330 326 323 322 319 318 319 318 319 322 325 326 324 321 322 324 325 324 323 325 326 324 323 324 324 324 323 323 323 325 326 328 328 328 328 328 328 327
352 351 342 334 330 324 320 321 319 319 321 320 321 325 325 324 323 322 322 324 324 323 324 326 326 324 324 325 326 327 328 328 327 327 327 328 329 330 330 329 328 327
351 349 341 336 332 322 320 322 319 319 322 321 322 326 325 322 322 321 322 325 326 325 325 327 327 326 326 327 329 331 331 331 330 329 329 329 329 329 329 329 328 327
350 346 338 335 332 324 323 325 321 319 322 322 324 326 323 321 321 321 324 327 327 327 327 328 328 327 326 328 330 333 333 333 331 329 329 328 327 328 328 328 327 326
349 344 337 335 334 327 325 327 324 321 323 326 327 326 322 320 321 322 326 328 329 328 328 328 328 327 326 329 331 334 335 334 331 329 329 328 327 327 326 325 324 324
348 343 338 336 332 325 322 324 324 324 326 330 329 325 321 320 321 322 325 328 329 329 328 328 327 327 328 331 333 335 335 333 331 330 330 329 328 327 326 324 322 323
347 343 339 335 329 323 321 323 325 326 328 331 330 327 323 320 320 321 324 327 329 328 327 328 328 327 330 333 334 334 333 332 331 330 329 328 327 327 325 323 322 323
345 343 340 335 327 323 324 326 325 326 328 330 331 330 326 321 320 320 323 327 330 329 330 330 328 328 332 334 334 333 332 331 331 330 329 328 326 326 325 323 322 322
345 343 341 337 329 325 326 326 323 324 328 331 330 328 324 321 321 321 324 328 331 332 332 331 330 331 333 334 333 332 331 330 330 329 328 327 326 325 324 322 321 322
345 343 341 337 331 328 329 328 324 325 329 333 331 328 327 326 324 323 325 329 332 333 332 331 332 333 333 333 332 331 330 330 329 329 327 326 325 323 322 321 320 321
Wind_Speed
26 24 23 21 19 17 16 16 16 15 16 16 16 15 14 13 12 11 10 10 9 9 9 9 8 8 8 8 8 9 9 9 9 9 10 9 9 9 9 9 9 10
28 26 25 22 20 18 18 17 16 15 16 16 16 16 15 14 13 12 11 10 10 9 9 10 9 9 9 9 9 9 10 10 10 10 11 11 11 10 10 10 11 12
29 28 26 24 21 20 19 17 17 16 16 17 17 16 15 14 13 12 11 11 11 10 10 10 10 10 9 9 9 10 10 10 10 11 12 12 12 12 11 11 12 13
32 30 27 24 22 20 19 18 18 17 18 18 18 16 15 14 13 12 12 12 12 11 11 11 10 10 9 9 9 9 9 9 9 10 12 12 12 12 12 12 13 13
33 31 28 26 24 22 20 19 18 18 18 18 17 16 15 14 14 13 13 13 12 11 11 9 8 7 6 6 6 5 5 6 6 8 10 11 11 12 12 13 13 14
35 32 30 27 25 23 20 19 19 18 18 18 17 16 15 14 14 14 14 13 12 11 10 8 7 6 5 4 4 4 5 6 6 7 9 9 9 11 11 13 14 15
36 34 31 28 26 23 21 19 19 19 18 17 17 16 15 14 15 15 14 12 11 10 10 9 8 6 5 6 6 7 7 8 9 10 11 11 11 11 11 12 14 15
37 34 31 28 26 23 21 19 19 19 18 17 17 17 15 15 15 15 13 11 11 11 10 10 9 8 7 8 9 9 10 10 11 12 13 14 14 14 13 12 13 15
38 35 31 28 27 24 20 19 20 19 18 18 18 17 16 15 15 14 13 12 12 11 11 11 11 10 10 10 11 12 12 13 14 14 15 16 16 16 15 14 15 16
39 35 32 30 29 25 20 19 21 21 19 19 18 17 17 16 15 14 14 14 13 12 12 12 12 12 12 13 13 14 14 15 15 16 17 17 17 17 16 15 16 17
41 37 34 32 29 24 20 21 23 22 21 19 18 18 18 17 16 15 15 16 15 14 13 14 14 14 14 15 15 15 16 16 17 17 17 17 17 16 16 15 16 17
43 39 33 30 27 22 20 22 24 23 21 20 19 19 19 17 17 16 15 16 16 15 15 15 15 16 16 16 16 17 17 17 17 17 16 15 15 15 15 15 16 17
40 35 32 31 29 26 25 24 25 24 22 20 20 20 19 18 18 15 13 15 17 16 15 16 16 16 16 17 17 17 18 18 17 16 15 15 15 15 15 16 16 17
39 38 39 38 35 33 32 29 27 25 23 21 21 20 19 19 18 16 14 16 18 18 17 17 17 17 17 17 17 17 17 17 17 16 16 16 16 16 17 18 18 19
46 46 46 42 37 36 35 32 29 27 24 23 22 21 18 17 18 18 18 20 20 20 19 18 18 18 17 17 17 16 16 16 16 16 16 17 17 18 18 19 19 19
49 48 48 43 40 38 35 34 32 28 26 25 24 23 18 15 19 22 22 22 22 21 20 19 18 19 18 17 16 16 15 16 16 16 16 17 17 18 18 19 19 19
47 47 46 40 37 35 35 35 33 29 27 26 26 24 18 16 22 27 25 24 23 23 21 19 19 19 18 17 16 16 15 16 16 17 17 17 18 18 19 19 20 21
46 47 45 38 34 33 34 34 32 29 27 28 27 21 16 18 25 28 26 24 23 23 21 19 19 19 19 18 17 15 15 17 18 19 19 20 20 20 20 21 21 21
45 47 45 37 32 32 32 31 32 30 28 29 26 19 18 23 27 27 25 24 23 23 21 20 20 20 19 19 16 14 14 17 18 19 20 21 22 22 23 23 22 22
43 45 42 34 31 32 32 31 30 28 27 28 26 22 24 29 29 27 26 24 23 23 21 20 20 20 20 19 16 14 15 16 17 16 17 19 21 22 23 23 22 22
42 43 38 32 30 33 34 32 30 27 26 27 26 27 30 31 28 27 26 24 23 23 21 21 21 21 20 18 16 16 17 18 17 16 17 18 20 21 22 21 21 22
42 41 35 31 31 36 38 35 32 30 29 27 27 29 31 29 27 27 26 24 23 22 21 22 21 20 19 18 18 18 19 19 18 18 18 20 21 21 20 19 20 21
41 39 33 30 34 40 41 39 37 35 33 29 28 29 30 30 28 27 25 24 23 23 23 22 21 20 19 19 19 21 21 20 20 19 19 21 22 20 19 19 19 19
39 36 30 28 35 42 43 43 42 39 36 33 29 27 28 29 28 26 25 24 24 24 23 23 22 21 20 21 21 21 22 21 20 20 21 22 21 19 18 19 18 18
37 33 27 27 34 42 44 43 42 39 35 31 26 24 25 26 25 25 24 23 24 24 24 23 23 22 21 21 22 21 21 20 21 21 22 21 19 18 18 18 17 17
33 30 26 25 33 42 42 39 38 37 33 25 19 19 21 22 24 25 24 23 23 23 23 24 24 24 23 23 23 22 21 20 21 21 20 19 18 18 18 17 16 17
Wind_Direction
218 220 222 225 228 231 235 240 245 250 255 257 258 258 255 253 254 253 244 234 232 233 233 236 237 240 247 251 255 258 260 263 266 268 270 271 272 273 276 277 277 278
217 219 220 223 225 228 232 237 242 246 250 252 253 252 249 248 249 246 237 230 229 229 230 235 238 243 248 252 257 260 261 264 266 268 270 272 273 273 275 276 276 277
217 217 219 220 222 226 230 235 239 242 245 247 246 245 245 245 246 243 236 229 226 225 228 233 237 243 249 254 258 259 260 262 263 265 268 270 271 272 274 275 275 276
217 217 218 219 222 226 230 235 238 239 241 242 242 242 243 244 244 240 233 228 223 222 225 229 234 242 249 253 257 260 261 263 264 266 269 272 273 273 274 274 275 277
217 218 218 220 223 226 230 235 237 238 239 240 240 240 240 241 238 232 226 220 216 216 216 217 222 230 238 245 255 264 270 273 274 274 277 280 281 280 278 277 278 280
219 220 219 220 222 224 228 234 238 238 238 238 237 238 236 235 231 222 214 211 209 208 202 197 202 211 225 244 260 272 283 287 288 288 291 295 293 288 285 282 281 282
221 221 221 221 222 224 228 234 239 238 237 235 234 234 232 228 222 211 206 208 206 201 197 200 209 218 236 258 270 279 287 291 292 292 295 299 299 297 294 288 285 284
222 222 222 222 223 225 228 233 239 238 235 233 231 232 229 221 213 206 206 211 207 205 208 215 224 231 245 260 270 279 285 288 289 288 289 292 294 297 297 292 288 286
224 223 221 222 221 222 225 233 241 239 233 231 232 231 224 214 209 207 211 215 215 217 223 229 236 242 250 260 269 276 281 286 287 287 287 288 290 293 295 292 289 289
226 224 221 219 217 217 222 232 240 239 233 230 231 230 222 214 211 212 217 224 227 231 236 242 247 252 258 264 269 275 280 285 287 287 287 287 285 286 288 289 289 290
228 225 221 218 215 214 221 232 237 237 233 231 232 230 223 216 216 219 224 232 237 241 247 251 255 259 263 267 272 277 281 283 284 286 286 283 279 280 283 287 290 292
229 223 218 215 213 212 220 232 238 237 233 233 235 233 226 222 223 224 228 238 244 249 255 258 261 263 267 273 279 281 282 282 284 287 286 281 278 279 282 286 290 293
223 216 212 212 216 219 222 228 237 238 234 233 234 231 226 223 223 218 220 237 247 250 256 261 263 266 271 278 282 283 284 285 287 287 285 281 281 281 282 286 291 295
217 217 218 218 220 221 218 218 226 234 233 231 232 228 223 221 218 211 215 233 244 249 253 258 262 266 274 278 280 283 284 284 284 282 282 283 285 285 285 289 293 297
225 223 220 219 218 217 213 210 216 225 227 228 226 218 216 222 218 213 218 230 240 245 249 255 262 268 272 275 277 280 278 277 277 278 282 285 286 287 289 292 296 298
230 223 219 218 215 214 212 208 209 214 219 225 221 213 221 236 228 220 222 230 238 243 247 254 263 267 269 272 274 273 269 269 272 275 281 285 287 292 295 297 299 298
230 222 218 213 211 211 207 205 208 211 216 220 216 217 230 238 228 225 228 232 238 243 247 255 263 266 268 270 269 267 267 269 272 275 279 284 287 292 298 301 301 299
231 222 215 211 215 212 204 204 210 212 215 215 216 227 235 225 222 225 229 233 239 245 249 256 264 268 269 269 268 270 275 277 277 278 282 286 289 292 296 300 300 298
231 221 214 213 217 211 204 208 212 212 215 216 221 236 232 221 224 228 230 235 241 247 253 259 266 270 269 266 267 275 283 282 280 281 284 289 292 293 295 297 297 295
228 219 212 212 214 208 205 213 215 213 214 218 228 236 225 221 227 231 233 238 243 250 257 263 269 272 268 264 266 275 283 284 285 285 287 292 294 293 294 295 295 293
225 216 211 218 218 204 200 209 215 214 213 220 233 234 226 226 232 236 239 242 246 253 260 264 269 270 266 264 266 273 280 284 286 288 290 296 299 296 294 295 295 294
225 214 212 221 213 197 195 203 209 211 213 221 233 234 231 233 237 240 242 244 248 254 259 263 268 267 262 262 265 271 276 280 284 288 292 299 303 300 295 295 298 296
225 215 214 216 205 195 195 199 203 209 216 225 236 239 237 239 241 243 245 247 250 255 259 264 266 263 261 263 268 273 277 279 283 288 295 302 305 300 295 297 300 297
225 218 214 213 205 198 197 200 203 208 218 231 241 244 243 244 247 249 250 251 255 258 262 264 264 263 264 267 273 279 280 281 284 291 298 303 303 298 296 298 299 294
228 222 218 217 208 200 200 204 206 210 222 236 244 246 247 249 251 251 251 253 257 261 263 263 263 264 265 269 277 282 282 284 289 295 299 300 298 296 297 297 296 291
231 225 223 220 208 201 202 209 213 216 225 236 244 249 253 255 251 250 252 255 260 263 264 264 265 263 263 269 278 283 284 289 295 296 296 295 295 298 299 298 294 288